QPF
0.07 0.07 0.06 0.04 0.04 0.03 0.05 0.07 0.09 0.05 0.04 0.04 0.04 0.03 0.04 0.05 0.06 0.04 0.03 0.04 0.03 0.02 0.02 0.03 0.02 0.02 0.02 0.02 0.02 0.01 0.02 0.02 0.04 0.09 0.09 0.06 0.04 0.07
0.07 0.06 0.05 0.05 0.04 0.04 0.05 0.06 0.08 0.08 0.06 0.04 0.04 0.03 0.05 0.04 0.04 0.04 0.03 0.04 0.04 0.03 0.02 0.02 0.02 0.01 0.02 0.03 0.02 0.02 0.02 0.02 0.03 0.05 0.12 0.12 0.06 0.04
0.06 0.06 0.04 0.05 0.05 0.04 0.05 0.05 0.07 0.09 0.07 0.05 0.04 0.05 0.05 0.04 0.04 0.04 0.03 0.03 0.03 0.02 0.02 0.03 0.03 0.02 0.02 0.02 0.02 0.02 0.02 0.02 0.04 0.06 0.13 0.19 0.12 0.05
0.03 0.04 0.04 0.03 0.03 0.03 0.04 0.04 0.06 0.08 0.08 0.07 0.06 0.05 0.04 0.04 0.04 0.04 0.03 0.03 0.02 0.02 0.03 0.03 0.03 0.03 0.03 0.02 0.02 0.02 0.02 0.02 0.03 0.06 0.07 0.10 0.11 0.09
0.03 0.03 0.04 0.04 0.03 0.03 0.04 0.06 0.07 0.08 0.08 0.08 0.07 0.07 0.05 0.05 0.05 0.03 0.03 0.02 0.02 0.01 0.02 0.04 0.04 0.03 0.03 0.02 0.02 0.01 0.01 0.01 0.02 0.04 0.06 0.07 0.07 0.07
0.04 0.04 0.05 0.05 0.04 0.05 0.05 0.07 0.08 0.08 0.08 0.07 0.06 0.06 0.05 0.05 0.04 0.04 0.04 0.03 0.03 0.02 0.03 0.04 0.04 0.04 0.04 0.03 0.02 0.01 0.01 0.01 0.02 0.02 0.04 0.05 0.05 0.05
0.05 0.05 0.05 0.05 0.06 0.06 0.06 0.07 0.09 0.09 0.07 0.06 0.05 0.05 0.05 0.05 0.05 0.06 0.05 0.06 0.06 0.06 0.05 0.04 0.05 0.05 0.05 0.04 0.03 0.02 0.01 0.01 0.02 0.02 0.02 0.04 0.04 0.04
0.04 0.05 0.06 0.06 0.07 0.08 0.08 0.09 0.08 0.07 0.06 0.05 0.05 0.05 0.04 0.04 0.05 0.05 0.05 0.05 0.05 0.06 0.07 0.06 0.05 0.05 0.04 0.04 0.04 0.03 0.03 0.03 0.03 0.02 0.02 0.03 0.03 0.03
0.04 0.05 0.06 0.06 0.08 0.08 0.08 0.08 0.06 0.05 0.04 0.04 0.04 0.04 0.04 0.05 0.06 0.06 0.06 0.05 0.04 0.05 0.06 0.05 0.05 0.03 0.04 0.03 0.04 0.05 0.04 0.03 0.02 0.02 0.02 0.03 0.03 0.04
0.02 0.03 0.03 0.05 0.06 0.05 0.05 0.04 0.03 0.03 0.04 0.04 0.04 0.04 0.05 0.06 0.06 0.07 0.07 0.06 0.05 0.04 0.04 0.04 0.03 0.03 0.03 0.04 0.04 0.04 0.03 0.03 0.02 0.02 0.02 0.02 0.03 0.05
0.03 0.03 0.03 0.03 0.04 0.04 0.03 0.02 0.02 0.02 0.03 0.04 0.05 0.06 0.06 0.06 0.06 0.06 0.06 0.05 0.05 0.06 0.05 0.04 0.02 0.03 0.03 0.04 0.04 0.04 0.04 0.04 0.03 0.03 0.03 0.03 0.03 0.03
0.02 0.02 0.02 0.02 0.03 0.04 0.03 0.03 0.03 0.02 0.03 0.03 0.04 0.04 0.04 0.05 0.05 0.05 0.04 0.04 0.05 0.06 0.08 0.06 0.04 0.04 0.04 0.03 0.02 0.03 0.04 0.05 0.05 0.04 0.03 0.03 0.03 0.02
0.02 0.01 0.02 0.03 0.04 0.05 0.04 0.03 0.03 0.04 0.04 0.04 0.04 0.03 0.03 0.03 0.02 0.02 0.02 0.03 0.03 0.05 0.06 0.07 0.06 0.06 0.04 0.03 0.03 0.03 0.03 0.04 0.05 0.05 0.05 0.05 0.04 0.04
0.02 0.01 0.02 0.03 0.04 0.05 0.06 0.05 0.06 0.06 0.06 0.06 0.05 0.03 0.02 0.02 0.02 0.02 0.02 0.02 0.01 0.02 0.04 0.05 0.06 0.06 0.04 0.04 0.04 0.04 0.03 0.04 0.04 0.04 0.04 0.05 0.06 0.07
0.04 0.03 0.03 0.03 0.04 0.04 0.05 0.05 0.05 0.06 0.05 0.04 0.03 0.03 0.03 0.03 0.03 0.03 0.03 0.02 0.02 0.03 0.04 0.04 0.06 0.06 0.04 0.03 0.04 0.03 0.04 0.04 0.04 0.04 0.05 0.05 0.04 0.05
0.05 0.05 0.04 0.05 0.05 0.05 0.05 0.05 0.04 0.04 0.04 0.04 0.03 0.03 0.03 0.03 0.03 0.03 0.03 0.02 0.04 0.05 0.05 0.06 0.06 0.05 0.03 0.03 0.03 0.03 0.02 0.02 0.03 0.04 0.05 0.05 0.04 0.04
0.07 0.06 0.05 0.05 0.06 0.05 0.04 0.03 0.03 0.03 0.03 0.03 0.03 0.03 0.03 0.04 0.04 0.03 0.03 0.02 0.03 0.04 0.04 0.06 0.08 0.07 0.03 0.03 0.03 0.03 0.03 0.02 0.03 0.04 0.05 0.05 0.05 0.04
0.06 0.06 0.06 0.07 0.07 0.05 0.04 0.03 0.03 0.03 0.03 0.03 0.03 0.03 0.03 0.03 0.05 0.05 0.04 0.03 0.03 0.03 0.03 0.04 0.08 0.10 0.06 0.04 0.05 0.05 0.04 0.03 0.03 0.05 0.04 0.04 0.04 0.05
0.03 0.04 0.05 0.05 0.05 0.06 0.06 0.05 0.05 0.05 0.04 0.04 0.04 0.04 0.04 0.04 0.04 0.05 0.04 0.04 0.04 0.03 0.03 0.04 0.05 0.08 0.09 0.07 0.05 0.04 0.05 0.04 0.03 0.04 0.04 0.04 0.03 0.04
0.02 0.03 0.04 0.05 0.05 0.06 0.07 0.07 0.07 0.07 0.07 0.06 0.06 0.06 0.05 0.05 0.05 0.05 0.04 0.05 0.06 0.06 0.04 0.03 0.04 0.04 0.05 0.05 0.04 0.03 0.03 0.04 0.04 0.03 0.04 0.04 0.04 0.05
0.02 0.02 0.03 0.03 0.04 0.05 0.07 0.07 0.07 0.08 0.09 0.09 0.09 0.09 0.08 0.08 0.07 0.06 0.05 0.05 0.05 0.05 0.05 0.05 0.04 0.04 0.04 0.04 0.04 0.03 0.03 0.05 0.06 0.05 0.04 0.04 0.04 0.04
0.02 0.02 0.03 0.03 0.03 0.04 0.05 0.07 0.08 0.09 0.10 0.13 0.13 0.11 0.08 0.06 0.06 0.05 0.04 0.04 0.03 0.03 0.03 0.03 0.02 0.03 0.03 0.03 0.03 0.02 0.03 0.04 0.05 0.08 0.08 0.05 0.03 0.04
0.03 0.03 0.03 0.03 0.03 0.03 0.04 0.05 0.06 0.07 0.07 0.07 0.08 0.07 0.06 0.05 0.05 0.04 0.03 0.03 0.03 0.03 0.04 0.04 0.03 0.03 0.02 0.02 0.03 0.03 0.02 0.03 0.04 0.05 0.06 0.06 0.04 0.04
MSLP
1008.80 1009.09 1009.37 1009.63 1009.82 1009.93 1009.95 1009.89 1009.76 1009.60 1009.44 1009.31 1009.23 1009.21 1009.24 1009.32 1009.43 1009.56 1009.69 1009.83 1009.98 1010.16 1010.37 1010.62 1010.92 1011.26 1011.63 1012.02 1012.42 1012.80 1013.15 1013.46 1013.72 1013.94 1014.10 1014.20 1014.24 1014.21
1007.65 1007.88 1008.12 1008.34 1008.53 1008.66 1008.74 1008.77 1008.76 1008.75 1008.74 1008.75 1008.80 1008.88 1008.99 1009.10 1009.22 1009.33 1009.44 1009.55 1009.69 1009.86 1010.07 1010.34 1010.67 1011.05 1011.46 1011.88 1012.30 1012.69 1013.05 1013.37 1013.63 1013.84 1014.00 1014.10 1014.15 1014.13
1006.49 1006.67 1006.85 1007.04 1007.20 1007.34 1007.45 1007.55 1007.65 1007.76 1007.89 1008.04 1008.21 1008.40 1008.58 1008.75 1008.89 1009.01 1009.12 1009.23 1009.36 1009.53 1009.76 1010.05 1010.40 1010.81 1011.24 1011.68 1012.12 1012.51 1012.87 1013.18 1013.44 1013.64 1013.81 1013.92 1013.98 1013.99
1005.34 1005.47 1005.61 1005.75 1005.89 1006.03 1006.16 1006.32 1006.49 1006.69 1006.93 1007.20 1007.48 1007.75 1008.02 1008.24 1008.43 1008.59 1008.72 1008.85 1009.00 1009.19 1009.44 1009.76 1010.14 1010.56 1011.01 1011.45 1011.88 1012.27 1012.61 1012.91 1013.16 1013.36 1013.53 1013.66 1013.74 1013.78
1004.20 1004.29 1004.40 1004.51 1004.62 1004.75 1004.90 1005.08 1005.30 1005.56 1005.88 1006.22 1006.59 1006.95 1007.29 1007.59 1007.84 1008.05 1008.24 1008.42 1008.61 1008.85 1009.14 1009.48 1009.88 1010.32 1010.76 1011.20 1011.61 1011.98 1012.30 1012.58 1012.81 1013.01 1013.18 1013.32 1013.43 1013.49
1003.02 1003.09 1003.18 1003.27 1003.37 1003.48 1003.63 1003.82 1004.06 1004.37 1004.72 1005.13 1005.56 1005.99 1006.40 1006.78 1007.11 1007.40 1007.67 1007.92 1008.19 1008.49 1008.83 1009.21 1009.63 1010.07 1010.51 1010.93 1011.32 1011.66 1011.94 1012.19 1012.40 1012.59 1012.75 1012.89 1013.01 1013.09
1001.76 1001.83 1001.91 1001.99 1002.08 1002.19 1002.34 1002.53 1002.77 1003.09 1003.47 1003.91 1004.38 1004.87 1005.36 1005.82 1006.24 1006.64 1007.00 1007.36 1007.72 1008.09 1008.49 1008.92 1009.36 1009.81 1010.24 1010.64 1010.99 1011.29 1011.54 1011.75 1011.93 1012.09 1012.24 1012.37 1012.48 1012.56
1000.40 1000.47 1000.55 1000.64 1000.74 1000.84 1000.98 1001.17 1001.41 1001.73 1002.12 1002.58 1003.09 1003.63 1004.19 1004.74 1005.27 1005.77 1006.25 1006.72 1007.18 1007.64 1008.11 1008.59 1009.06 1009.51 1009.93 1010.30 1010.61 1010.87 1011.08 1011.25 1011.40 1011.53 1011.66 1011.77 1011.86 1011.93
998.95 999.02 999.12 999.22 999.32 999.44 999.57 999.76 1000.00 1000.32 1000.71 1001.19 1001.74 1002.33 1002.96 1003.60 1004.23 1004.85 1005.45 1006.03 1006.59 1007.14 1007.68 1008.20 1008.69 1009.15 1009.56 1009.90 1010.19 1010.42 1010.59 1010.73 1010.84 1010.94 1011.03 1011.11 1011.18 1011.21
997.47 997.54 997.64 997.76 997.88 998.00 998.16 998.35 998.59 998.92 999.33 999.83 1000.41 1001.06 1001.76 1002.48 1003.21 1003.93 1004.64 1005.31 1005.97 1006.59 1007.18 1007.74 1008.26 1008.72 1009.13 1009.46 1009.73 1009.94 1010.09 1010.20 1010.29 1010.36 1010.41 1010.45 1010.47 1010.45
996.03 996.11 996.22 996.35 996.49 996.64 996.81 997.02 997.29 997.64 998.07 998.61 999.24 999.94 1000.70 1001.50 1002.31 1003.11 1003.89 1004.65 1005.36 1006.04 1006.67 1007.25 1007.78 1008.26 1008.66 1009.00 1009.26 1009.46 1009.61 1009.71 1009.78 1009.82 1009.84 1009.84 1009.80 1009.73
994.73 994.81 994.93 995.08 995.24 995.42 995.62 995.87 996.17 996.56 997.04 997.62 998.30 999.06 999.88 1000.73 1001.60 1002.46 1003.29 1004.09 1004.84 1005.54 1006.18 1006.77 1007.31 1007.78 1008.19 1008.53 1008.81 1009.02 1009.18 1009.28 1009.35 1009.37 1009.36 1009.32 1009.23 1009.10
993.62 993.70 993.84 994.01 994.20 994.42 994.66 994.96 995.32 995.76 996.30 996.94 997.67 998.48 999.35 1000.25 1001.16 1002.04 1002.89 1003.69 1004.44 1005.13 1005.76 1006.34 1006.87 1007.34 1007.75 1008.11 1008.41 1008.64 1008.82 1008.95 1009.01 1009.03 1009.00 1008.92 1008.78 1008.60
992.72 992.82 992.98 993.17 993.40 993.66 993.96 994.32 994.74 995.26 995.87 996.57 997.37 998.23 999.14 1000.07 1000.98 1001.87 1002.70 1003.48 1004.19 1004.84 1005.44 1005.99 1006.49 1006.95 1007.37 1007.74 1008.07 1008.34 1008.55 1008.70 1008.78 1008.80 1008.75 1008.63 1008.45 1008.21
992.04 992.15 992.33 992.56 992.83 993.14 993.50 993.92 994.43 995.02 995.70 996.48 997.33 998.25 999.19 1000.13 1001.04 1001.90 1002.70 1003.43 1004.08 1004.68 1005.22 1005.72 1006.19 1006.64 1007.05 1007.44 1007.79 1008.09 1008.33 1008.51 1008.61 1008.63 1008.57 1008.43 1008.20 1007.91
991.53 991.67 991.87 992.13 992.44 992.80 993.22 993.72 994.29 994.96 995.73 996.58 997.49 998.45 999.42 1000.36 1001.26 1002.09 1002.83 1003.50 1004.09 1004.61 1005.09 1005.54 1005.97 1006.39 1006.80 1007.19 1007.56 1007.89 1008.16 1008.36 1008.47 1008.50 1008.43 1008.26 1008.00 1007.65
991.19 991.34 991.57 991.86 992.20 992.61 993.08 993.64 994.28 995.02 995.86 996.77 997.74 998.73 999.72 1000.66 1001.54 1002.33 1003.03 1003.63 1004.15 1004.60 1005.02 1005.42 1005.81 1006.20 1006.60 1006.99 1007.37 1007.71 1007.99 1008.20 1008.33 1008.35 1008.26 1008.07 1007.77 1007.39
991.01 991.18 991.42 991.73 992.09 992.52 993.04 993.64 994.34 995.14 996.02 996.99 997.99 999.01 1000.01 1000.95 1001.80 1002.56 1003.21 1003.76 1004.22 1004.62 1004.99 1005.34 1005.69 1006.05 1006.43 1006.82 1007.19 1007.53 1007.82 1008.03 1008.14 1008.15 1008.05 1007.83 1007.50 1007.08
991.06 991.23 991.46 991.76 992.13 992.57 993.10 993.73 994.46 995.28 996.21 997.19 998.22 999.25 1000.25 1001.17 1002.01 1002.74 1003.35 1003.86 1004.28 1004.65 1004.97 1005.29 1005.61 1005.96 1006.32 1006.68 1007.04 1007.37 1007.64 1007.84 1007.93 1007.92 1007.78 1007.53 1007.17 1006.72
991.40 991.54 991.76 992.03 992.38 992.81 993.33 993.95 994.68 995.51 996.44 997.42 998.45 999.47 1000.44 1001.35 1002.16 1002.86 1003.45 1003.94 1004.34 1004.68 1004.98 1005.28 1005.59 1005.92 1006.26 1006.61 1006.94 1007.25 1007.49 1007.65 1007.72 1007.67 1007.50 1007.22 1006.82 1006.34
992.09 992.20 992.37 992.61 992.91 993.31 993.80 994.39 995.09 995.89 996.78 997.74 998.72 999.71 1000.65 1001.52 1002.30 1002.97 1003.54 1004.01 1004.40 1004.73 1005.04 1005.34 1005.64 1005.96 1006.28 1006.61 1006.92 1007.19 1007.40 1007.52 1007.54 1007.45 1007.24 1006.92 1006.49 1005.98
993.17 993.23 993.35 993.53 993.79 994.13 994.56 995.10 995.75 996.49 997.32 998.21 999.13 1000.05 1000.93 1001.74 1002.48 1003.11 1003.66 1004.11 1004.50 1004.84 1005.16 1005.46 1005.77 1006.09 1006.41 1006.72 1007.00 1007.24 1007.40 1007.48 1007.45 1007.31 1007.06 1006.69 1006.23 1005.68
994.61 994.62 994.69 994.82 995.01 995.29 995.66 996.12 996.69 997.35 998.09 998.88 999.71 1000.53 1001.33 1002.07 1002.73 1003.32 1003.84 1004.28 1004.67 1005.02 1005.35 1005.67 1005.99 1006.31 1006.63 1006.92 1007.18 1007.38 1007.51 1007.54 1007.46 1007.28 1006.98 1006.57 1006.07 1005.49
Thickness
5736 5735 5732 5731 5729 5727 5725 5720 5713 5707 5709 5713 5715 5718 5718 5717 5716 5714 5712 5710 5709 5707 5706 5705 5704 5703 5703 5702 5702 5701 5700 5699 5699 5699 5698 5698 5698 5698
5731 5729 5727 5726 5724 5722 5720 5718 5715 5709 5705 5708 5709 5712 5713 5712 5710 5708 5707 5705 5704 5702 5701 5700 5698 5697 5697 5696 5695 5694 5693 5693 5693 5694 5693 5693 5692 5692
5724 5723 5721 5720 5717 5716 5715 5713 5710 5707 5701 5703 5704 5705 5704 5704 5703 5701 5700 5699 5698 5697 5695 5694 5692 5691 5691 5690 5688 5687 5687 5686 5687 5687 5687 5687 5687 5687
5717 5715 5714 5714 5711 5709 5707 5706 5704 5703 5698 5695 5696 5696 5696 5696 5695 5693 5693 5692 5691 5691 5690 5688 5687 5685 5684 5683 5681 5681 5680 5680 5680 5680 5680 5681 5681 5681
5712 5710 5708 5707 5704 5702 5701 5699 5698 5698 5694 5690 5689 5688 5688 5688 5686 5685 5685 5684 5684 5684 5684 5682 5681 5680 5678 5677 5675 5674 5674 5673 5674 5674 5674 5674 5675 5675
5708 5706 5703 5701 5699 5697 5695 5693 5691 5689 5687 5684 5681 5680 5679 5680 5678 5675 5673 5674 5675 5677 5676 5676 5675 5673 5672 5671 5669 5668 5668 5668 5668 5668 5668 5668 5669 5669
5702 5700 5699 5698 5696 5694 5691 5687 5685 5682 5678 5676 5673 5671 5670 5670 5669 5668 5666 5665 5666 5668 5667 5667 5667 5666 5665 5664 5663 5662 5662 5662 5662 5663 5663 5663 5663 5663
5695 5694 5693 5691 5690 5688 5686 5683 5680 5676 5672 5669 5666 5664 5663 5663 5663 5662 5658 5656 5656 5660 5659 5658 5659 5657 5658 5657 5657 5657 5656 5655 5656 5656 5657 5657 5657 5657
5688 5685 5685 5684 5681 5679 5678 5676 5674 5673 5671 5666 5661 5660 5659 5659 5657 5655 5653 5651 5651 5653 5652 5650 5651 5650 5652 5652 5652 5652 5651 5650 5650 5650 5651 5651 5651 5651
5681 5678 5675 5674 5673 5671 5668 5666 5664 5663 5663 5661 5658 5657 5656 5655 5652 5651 5649 5647 5647 5647 5646 5643 5644 5644 5647 5646 5647 5647 5646 5645 5645 5645 5645 5645 5645 5645
5673 5671 5669 5666 5666 5664 5659 5656 5655 5655 5656 5655 5653 5652 5651 5649 5647 5644 5641 5638 5637 5638 5639 5637 5637 5636 5638 5639 5641 5641 5640 5639 5639 5639 5639 5639 5639 5638
5665 5663 5662 5660 5658 5655 5651 5647 5645 5645 5645 5645 5643 5643 5642 5641 5640 5638 5636 5633 5631 5630 5632 5631 5630 5629 5628 5631 5633 5634 5633 5633 5633 5632 5632 5632 5632 5631
5656 5654 5653 5652 5649 5646 5643 5640 5639 5637 5636 5634 5633 5633 5632 5632 5632 5632 5631 5629 5626 5625 5627 5626 5624 5623 5622 5622 5624 5626 5626 5626 5626 5626 5626 5626 5626 5625
5648 5647 5645 5643 5641 5638 5635 5633 5632 5630 5627 5625 5623 5623 5623 5624 5625 5625 5625 5624 5624 5623 5622 5621 5619 5618 5616 5614 5614 5616 5618 5618 5619 5619 5619 5619 5619 5619
5641 5640 5638 5635 5633 5630 5628 5626 5624 5621 5619 5617 5616 5616 5617 5617 5617 5617 5617 5616 5616 5617 5617 5616 5614 5612 5610 5608 5608 5608 5609 5610 5611 5611 5611 5611 5611 5612
5632 5631 5629 5627 5624 5622 5620 5617 5616 5614 5612 5610 5610 5610 5610 5609 5609 5609 5607 5607 5605 5606 5608 5608 5608 5606 5604 5603 5602 5602 5603 5603 5604 5604 5604 5604 5604 5605
5623 5621 5619 5616 5614 5612 5610 5608 5607 5606 5604 5603 5602 5602 5601 5601 5600 5600 5599 5597 5596 5596 5596 5598 5599 5600 5599 5597 5595 5596 5596 5597 5597 5597 5597 5596 5597 5598
5615 5611 5609 5607 5606 5604 5601 5600 5599 5599 5598 5597 5596 5595 5594 5593 5592 5591 5591 5590 5589 5588 5588 5589 5589 5589 5589 5590 5591 5590 5589 5589 5590 5590 5590 5590 5590 5591
5608 5604 5602 5600 5598 5596 5594 5593 5593 5592 5592 5591 5589 5589 5588 5587 5586 5584 5584 5583 5582 5582 5581 5582 5581 5580 5579 5580 5583 5585 5584 5583 5583 5583 5583 5583 5584 5584
5600 5598 5596 5594 5592 5590 5588 5587 5586 5585 5585 5584 5584 5583 5582 5582 5580 5579 5578 5577 5576 5576 5575 5575 5575 5575 5575 5575 5576 5577 5579 5579 5578 5577 5576 5576 5576 5577
5594 5592 5590 5588 5587 5585 5584 5582 5581 5580 5579 5578 5577 5577 5576 5576 5575 5574 5573 5572 5570 5570 5569 5569 5571 5572 5571 5570 5569 5569 5571 5573 5573 5572 5571 5570 5570 5569
5588 5586 5585 5583 5582 5580 5579 5577 5576 5575 5574 5573 5572 5572 5571 5570 5569 5569 5568 5566 5565 5564 5564 5565 5565 5565 5564 5563 5562 5563 5563 5565 5566 5567 5567 5568 5566 5564
5583 5581 5579 5578 5576 5575 5573 5572 5570 5569 5568 5568 5567 5566 5566 5565 5564 5563 5563 5562 5561 5560 5559 5558 5558 5558 5557 5557 5556 5556 5557 5557 5558 5559 5560 5562 5564 5564